Location: Zlin
(49.2330°N, 17.6670°E)
Time: 11:22:58
(UTC+02:00)

ISS - Visible Passes

Search period start: 16 September 2014 00:00
Search period end: 26 September 2014 00:00
Orbit: 414 x 417 km, 51.6° (Epoch: 16 September)

Date Brightness Start Highest point End Pass type
(mag) Time Alt. Az. Time Alt. Az. Time Alt. Az.
16 Sep -1.8 04:44:57 23° S 04:46:07 28° SE 04:49:03 10° E visible
17 Sep -0.9 03:58:20 18° ESE 03:58:20 18° ESE 04:00:02 10° E visible
17 Sep -3.3 05:31:13 15° WSW 05:33:56 81° SSE 05:37:17 10° ENE visible
18 Sep -3.0 04:44:31 45° SSW 04:45:13 58° SSE 04:48:31 10° ENE visible
19 Sep -1.4 03:57:44 27° E 03:57:44 27° E 03:59:40 10° ENE visible
19 Sep -3.1 05:30:37 16° W 05:33:09 66° NNW 05:36:29 10° ENE visible
20 Sep -3.3 04:43:46 60° W 04:44:18 81° NNW 04:47:39 10° ENE visible
21 Sep -1.5 03:56:53 31° ENE 03:56:53 31° ENE 03:58:47 10° ENE visible
21 Sep -2.8 05:29:45 16° WNW 05:32:18 54° N 05:35:35 10° ENE visible
22 Sep -3.0 04:42:49 51° NW 04:43:20 59° N 04:46:38 10° ENE visible
23 Sep -1.3 03:55:52 29° ENE 03:55:52 29° ENE 03:57:41 10° ENE visible
23 Sep -2.8 05:28:44 16° WNW 05:31:18 57° N 05:34:36 10° E visible
24 Sep -2.8 04:41:46 48° NW 04:42:15 54° N 04:45:32 10° E visible
25 Sep -1.1 03:54:48 26° ENE 03:54:48 26° ENE 03:56:28 10° ENE visible
25 Sep -3.2 05:27:40 17° WNW 05:30:06 77° NNE 05:33:26 10° ESE visible
